Location: Saint-Palais-sur-Mer
(45.6429°N, 1.0859°W)
Time: 02:41:19
(UTC+02:00)

CUBEBUG 2 - Pass Details

Date: 30 April 2024
Orbit: 570 x 668 km, 97.8° (Epoch: 23 May)

Event Time Altitude Azimuth Distance (km) Brightness Sun altitude
Rises 05:52:26 0° 352° (N) 2,812 ? -10.2°
Maximum altitude 05:57:20 11° 300° (WNW) 1,850 ? -9.5°
Drops below altitude 10° 05:58:35 10° 283° (WNW) 1,935 ? -9.3°
Enters shadow 05:59:39 - 270° (W) 2,119 ? -9.1°
